Year,Month,Day,Hour,Minute,Value (Times are PST for temperature in C)
2009,04,22,00,00,9.60
2009,04,22,00,01,9.60
2009,04,22,00,02,9.60
2009,04,22,00,03,9.60
2009,04,22,00,04,9.60
2009,04,22,00,05,9.60
2009,04,22,00,06,9.60
2009,04,22,00,07,9.60
2009,04,22,00,08,9.50
2009,04,22,00,09,9.50
2009,04,22,00,10,9.50
2009,04,22,00,11,9.50
2009,04,22,00,12,9.50
2009,04,22,00,13,9.50
2009,04,22,00,14,9.40
2009,04,22,00,15,9.40
2009,04,22,00,16,9.40
2009,04,22,00,17,9.40
2009,04,22,00,18,9.40
2009,04,22,00,19,9.30
2009,04,22,00,20,9.30
2009,04,22,00,21,9.30
2009,04,22,00,22,9.30
2009,04,22,00,23,9.30
2009,04,22,00,24,9.30
2009,04,22,00,25,9.30
2009,04,22,00,26,9.20
2009,04,22,00,27,9.20
2009,04,22,00,28,9.20
2009,04,22,00,29,9.20
2009,04,22,00,30,9.20
2009,04,22,00,31,9.20
2009,04,22,00,32,9.20
2009,04,22,00,33,9.20
2009,04,22,00,34,9.20
2009,04,22,00,35,9.20
2009,04,22,00,36,9.20
2009,04,22,00,37,9.20
2009,04,22,00,38,9.20
2009,04,22,00,39,9.20
2009,04,22,00,40,9.20
2009,04,22,00,41,9.20
2009,04,22,00,42,9.20
2009,04,22,00,43,9.20
2009,04,22,00,44,9.10
2009,04,22,00,45,9.10
2009,04,22,00,46,9.10
2009,04,22,00,47,9.10
2009,04,22,00,48,9.10
2009,04,22,00,49,9.00
2009,04,22,00,50,9.00
2009,04,22,00,51,9.00
2009,04,22,00,52,9.00
2009,04,22,00,53,8.90
2009,04,22,00,54,8.90
2009,04,22,00,55,8.90
2009,04,22,00,56,8.90
2009,04,22,00,57,8.80
2009,04,22,00,58,8.80
2009,04,22,00,59,8.80
2009,04,22,01,00,8.80
2009,04,22,01,01,8.80
2009,04,22,01,02,8.80
2009,04,22,01,03,8.80
2009,04,22,01,04,8.80
2009,04,22,01,05,8.80
2009,04,22,01,06,8.80
2009,04,22,01,07,8.80
2009,04,22,01,08,8.80
2009,04,22,01,09,8.80
2009,04,22,01,10,8.80
2009,04,22,01,11,8.80
2009,04,22,01,12,8.80
2009,04,22,01,13,8.80
2009,04,22,01,14,8.80
2009,04,22,01,15,8.80
2009,04,22,01,16,8.80
2009,04,22,01,17,8.70
2009,04,22,01,18,8.70
2009,04,22,01,19,8.80
2009,04,22,01,20,8.80
2009,04,22,01,21,8.80
2009,04,22,01,22,8.80
2009,04,22,01,23,8.70
2009,04,22,01,24,8.70
2009,04,22,01,25,8.70
2009,04,22,01,26,8.80
2009,04,22,01,27,8.80
2009,04,22,01,28,8.80
2009,04,22,01,29,8.80
2009,04,22,01,30,8.80
2009,04,22,01,31,8.80
2009,04,22,01,32,8.70
2009,04,22,01,33,8.70
2009,04,22,01,34,8.70
2009,04,22,01,35,8.70
2009,04,22,01,36,8.70
2009,04,22,01,37,8.70
2009,04,22,01,38,8.70
2009,04,22,01,39,8.70
2009,04,22,01,40,8.70
2009,04,22,01,41,8.70
2009,04,22,01,42,8.60
2009,04,22,01,43,8.60
2009,04,22,01,44,8.60
2009,04,22,01,45,8.60
2009,04,22,01,46,8.50
2009,04,22,01,47,8.50
2009,04,22,01,48,8.50
2009,04,22,01,49,8.50
2009,04,22,01,50,8.40
2009,04,22,01,51,8.40
2009,04,22,01,52,8.30
2009,04,22,01,53,8.30
2009,04,22,01,54,8.30
2009,04,22,01,55,8.30
2009,04,22,01,56,8.30
2009,04,22,01,57,8.20
2009,04,22,01,58,8.20
2009,04,22,01,59,8.20
2009,04,22,02,00,8.20
2009,04,22,02,01,8.20
2009,04,22,02,02,8.20
2009,04,22,02,03,8.20
2009,04,22,02,04,8.20
2009,04,22,02,05,8.20
2009,04,22,02,06,8.10
2009,04,22,02,07,8.10
2009,04,22,02,08,8.10
2009,04,22,02,09,8.10
2009,04,22,02,10,8.10
2009,04,22,02,11,8.10
2009,04,22,02,12,8.10
2009,04,22,02,13,8.10
2009,04,22,02,14,8.10
2009,04,22,02,15,8.00
2009,04,22,02,16,8.00
2009,04,22,02,17,8.00
2009,04,22,02,18,8.00
2009,04,22,02,19,8.00
2009,04,22,02,20,8.00
2009,04,22,02,21,8.00
2009,04,22,02,22,8.00
2009,04,22,02,23,8.00
2009,04,22,02,24,8.00
2009,04,22,02,25,8.00
2009,04,22,02,26,8.00
2009,04,22,02,27,8.00
2009,04,22,02,28,7.90
2009,04,22,02,29,7.90
2009,04,22,02,30,7.90
2009,04,22,02,31,7.80
2009,04,22,02,32,7.80
2009,04,22,02,33,7.80
2009,04,22,02,34,7.80
2009,04,22,02,35,7.80
2009,04,22,02,36,7.80
2009,04,22,02,37,7.80
2009,04,22,02,38,7.80
2009,04,22,02,39,7.80
2009,04,22,02,40,7.80
2009,04,22,02,41,7.80
2009,04,22,02,42,7.80
2009,04,22,02,43,7.80
2009,04,22,02,44,7.80
2009,04,22,02,45,7.80
2009,04,22,02,46,7.80
2009,04,22,02,47,7.80
2009,04,22,02,48,7.80
2009,04,22,02,49,7.80
2009,04,22,02,50,7.80
2009,04,22,02,51,7.80
2009,04,22,02,52,7.80
2009,04,22,02,53,7.80
2009,04,22,02,54,7.80
2009,04,22,02,55,7.80
2009,04,22,02,56,7.80
2009,04,22,02,57,7.80
2009,04,22,02,58,7.70
2009,04,22,02,59,7.70
2009,04,22,03,00,7.70
2009,04,22,03,01,7.70
2009,04,22,03,02,7.70
2009,04,22,03,03,7.60
2009,04,22,03,04,7.60
2009,04,22,03,05,7.60
2009,04,22,03,06,7.50
2009,04,22,03,07,7.50
2009,04,22,03,08,7.40
2009,04,22,03,09,7.40
2009,04,22,03,10,7.30
2009,04,22,03,11,7.30
2009,04,22,03,12,7.30
2009,04,22,03,13,7.30
2009,04,22,03,14,7.30
2009,04,22,03,15,7.20
2009,04,22,03,16,7.20
2009,04,22,03,17,7.20
2009,04,22,03,18,7.20
2009,04,22,03,19,7.10
2009,04,22,03,20,7.00
2009,04,22,03,21,7.00
2009,04,22,03,22,7.00
2009,04,22,03,23,7.00
2009,04,22,03,24,6.90
2009,04,22,03,25,6.90
2009,04,22,03,26,6.80
2009,04,22,03,27,6.80
2009,04,22,03,28,6.70
2009,04,22,03,29,6.70
2009,04,22,03,30,6.70
2009,04,22,03,31,6.70
2009,04,22,03,32,6.60
2009,04,22,03,33,6.60
2009,04,22,03,34,6.60
2009,04,22,03,35,6.60
2009,04,22,03,36,6.50
2009,04,22,03,37,6.40
2009,04,22,03,38,6.40
2009,04,22,03,39,6.40
2009,04,22,03,40,6.40
2009,04,22,03,41,6.30
2009,04,22,03,42,6.30
2009,04,22,03,43,6.30
2009,04,22,03,44,6.30
2009,04,22,03,45,6.20
2009,04,22,03,46,6.20
2009,04,22,03,47,6.20
2009,04,22,03,48,6.20
2009,04,22,03,49,6.20
2009,04,22,03,50,6.20
2009,04,22,03,51,6.20
2009,04,22,03,52,6.20
2009,04,22,03,53,6.10
2009,04,22,03,54,6.10
2009,04,22,03,55,6.00
2009,04,22,03,56,6.00
2009,04,22,03,57,5.90
2009,04,22,03,58,5.90
2009,04,22,03,59,5.80
2009,04,22,04,00,5.80
2009,04,22,04,01,5.70
2009,04,22,04,02,5.70
2009,04,22,04,03,5.60
2009,04,22,04,04,5.60
2009,04,22,04,05,5.50
2009,04,22,04,06,5.50
2009,04,22,04,07,5.40
2009,04,22,04,08,5.30
2009,04,22,04,09,5.30
2009,04,22,04,10,5.20
2009,04,22,04,11,5.10
2009,04,22,04,12,5.10
2009,04,22,04,13,5.10
2009,04,22,04,14,5.00
2009,04,22,04,15,4.90
2009,04,22,04,16,4.90
2009,04,22,04,17,4.90
2009,04,22,04,18,4.80
2009,04,22,04,19,4.80
2009,04,22,04,20,4.80
2009,04,22,04,21,4.90
2009,04,22,04,22,4.90
2009,04,22,04,23,4.90
2009,04,22,04,24,4.90
2009,04,22,04,25,4.90
2009,04,22,04,26,4.90
2009,04,22,04,27,5.00
2009,04,22,04,28,4.90
2009,04,22,04,29,4.90
2009,04,22,04,30,4.90
2009,04,22,04,31,4.90
2009,04,22,04,32,4.90
2009,04,22,04,33,4.90
2009,04,22,04,34,4.80
2009,04,22,04,35,4.80
2009,04,22,04,36,4.70
2009,04,22,04,37,4.70
2009,04,22,04,38,4.60
2009,04,22,04,39,4.60
2009,04,22,04,40,4.60
2009,04,22,04,41,4.50
2009,04,22,04,42,4.50
2009,04,22,04,43,4.40
2009,04,22,04,44,4.40
2009,04,22,04,45,4.30
2009,04,22,04,46,4.30
2009,04,22,04,47,4.30
2009,04,22,04,48,4.20
2009,04,22,04,49,4.20
2009,04,22,04,50,4.20
2009,04,22,04,51,4.20
2009,04,22,04,52,4.20
2009,04,22,04,53,4.20
2009,04,22,04,54,4.10
2009,04,22,04,55,4.10
2009,04,22,04,56,4.00
2009,04,22,04,57,4.00
2009,04,22,04,58,4.00
2009,04,22,04,59,3.90
2009,04,22,05,00,3.90
2009,04,22,05,01,3.90
2009,04,22,05,02,3.80
2009,04,22,05,03,3.80
2009,04,22,05,04,3.80
2009,04,22,05,05,3.80
2009,04,22,05,06,3.80
2009,04,22,05,07,3.70
2009,04,22,05,08,3.70
2009,04,22,05,09,3.70
2009,04,22,05,10,3.60
2009,04,22,05,11,3.60
2009,04,22,05,12,3.60
2009,04,22,05,13,3.60
2009,04,22,05,14,3.60
2009,04,22,05,15,3.50
2009,04,22,05,16,3.50
2009,04,22,05,17,3.50
2009,04,22,05,18,3.50
2009,04,22,05,19,3.50
2009,04,22,05,20,3.50
2009,04,22,05,21,3.50
2009,04,22,05,22,3.50
2009,04,22,05,23,3.50
2009,04,22,05,24,3.40
2009,04,22,05,25,3.40
2009,04,22,05,26,3.40
2009,04,22,05,27,3.40
2009,04,22,05,28,3.40
2009,04,22,05,29,3.40
2009,04,22,05,30,3.40
2009,04,22,05,31,3.40
2009,04,22,05,32,3.40
2009,04,22,05,33,3.40
2009,04,22,05,34,3.40
2009,04,22,05,35,3.40
2009,04,22,05,36,3.40
2009,04,22,05,37,3.40
2009,04,22,05,38,3.30
2009,04,22,05,39,3.30
2009,04,22,05,40,3.30
2009,04,22,05,41,3.30
2009,04,22,05,42,3.30
2009,04,22,05,43,3.30
2009,04,22,05,44,3.20
2009,04,22,05,45,3.20
2009,04,22,05,46,3.10
2009,04,22,05,47,3.10
2009,04,22,05,48,3.10
2009,04,22,05,49,3.10
2009,04,22,05,50,3.00
2009,04,22,05,51,2.90
2009,04,22,05,52,2.90
2009,04,22,05,53,2.90
2009,04,22,05,54,2.90
2009,04,22,05,55,2.80
2009,04,22,05,56,2.80
2009,04,22,05,57,2.70
2009,04,22,05,58,2.70
2009,04,22,05,59,2.70
2009,04,22,06,00,2.60
2009,04,22,06,01,2.60
2009,04,22,06,02,2.50
2009,04,22,06,03,2.50
2009,04,22,06,04,2.40
2009,04,22,06,05,2.30
2009,04,22,06,06,2.30
2009,04,22,06,07,2.30
2009,04,22,06,08,2.20
2009,04,22,06,09,2.20
2009,04,22,06,10,2.20
2009,04,22,06,11,2.20
2009,04,22,06,12,2.20
2009,04,22,06,13,2.10
2009,04,22,06,14,2.10
2009,04,22,06,15,2.10
2009,04,22,06,16,2.10
2009,04,22,06,17,2.00
2009,04,22,06,18,2.00
2009,04,22,06,19,2.00
2009,04,22,06,20,2.00
2009,04,22,06,21,2.00
2009,04,22,06,22,1.90
2009,04,22,06,23,1.90
2009,04,22,06,24,1.90
2009,04,22,06,25,1.90
2009,04,22,06,26,1.90
2009,04,22,06,27,1.80
2009,04,22,06,28,1.80
2009,04,22,06,29,1.80
2009,04,22,06,30,1.80
2009,04,22,06,31,1.80
2009,04,22,06,32,1.80
2009,04,22,06,33,1.80
2009,04,22,06,34,1.80
2009,04,22,06,35,1.80
2009,04,22,06,36,1.80
2009,04,22,06,37,1.80
2009,04,22,06,38,1.80
2009,04,22,06,39,1.80
2009,04,22,06,40,1.80
2009,04,22,06,41,1.70
2009,04,22,06,42,1.70
2009,04,22,06,43,1.70
2009,04,22,06,44,1.70
2009,04,22,06,45,1.70
2009,04,22,06,46,1.70
2009,04,22,06,47,1.70
2009,04,22,06,48,1.70
2009,04,22,06,49,1.70
2009,04,22,06,50,1.70
2009,04,22,06,51,1.70
2009,04,22,06,52,1.60
2009,04,22,06,53,1.60
2009,04,22,06,54,1.60
2009,04,22,06,55,1.60
2009,04,22,06,56,1.60
2009,04,22,06,57,1.60
2009,04,22,06,58,1.60
2009,04,22,06,59,1.60
2009,04,22,07,00,1.60
2009,04,22,07,01,1.60
2009,04,22,07,02,1.50
2009,04,22,07,03,1.50
2009,04,22,07,04,1.60
2009,04,22,07,05,1.60
2009,04,22,07,06,1.60
2009,04,22,07,07,1.60
2009,04,22,07,08,1.60
2009,04,22,07,09,1.60
2009,04,22,07,10,1.60
2009,04,22,07,11,1.60
2009,04,22,07,12,1.70
2009,04,22,07,13,1.70
2009,04,22,07,14,1.70
2009,04,22,07,15,1.70
2009,04,22,07,16,1.70
2009,04,22,07,17,1.80
2009,04,22,07,18,1.80
2009,04,22,07,19,1.80
2009,04,22,07,20,1.80
2009,04,22,07,21,1.80
2009,04,22,07,22,1.80
2009,04,22,07,23,1.80
2009,04,22,07,24,1.90
2009,04,22,07,25,1.90
2009,04,22,07,26,1.90
2009,04,22,07,27,1.90
2009,04,22,07,28,2.00
2009,04,22,07,29,2.00
2009,04,22,07,30,2.00
2009,04,22,07,31,2.00
2009,04,22,07,32,2.00
2009,04,22,07,33,2.10
2009,04,22,07,34,2.10
2009,04,22,07,35,2.20
2009,04,22,07,36,2.20
2009,04,22,07,37,2.20
2009,04,22,07,38,2.20
2009,04,22,07,39,2.20
2009,04,22,07,40,2.30
2009,04,22,07,41,2.30
2009,04,22,07,42,2.30
2009,04,22,07,43,2.40
2009,04,22,07,44,2.40
2009,04,22,07,45,2.40
2009,04,22,07,46,2.50
2009,04,22,07,47,2.50
2009,04,22,07,48,2.50
2009,04,22,07,49,2.60
2009,04,22,07,50,2.60
2009,04,22,07,51,2.60
2009,04,22,07,52,2.70
2009,04,22,07,53,2.70
2009,04,22,07,54,2.70
2009,04,22,07,55,2.70
2009,04,22,07,56,2.80
2009,04,22,07,57,2.80
2009,04,22,07,58,2.80
2009,04,22,07,59,2.90
2009,04,22,08,00,2.90
2009,04,22,08,01,2.90
2009,04,22,08,02,3.00
2009,04,22,08,03,3.10
2009,04,22,08,04,3.10
2009,04,22,08,05,3.10
2009,04,22,08,06,3.20
2009,04,22,08,07,3.20
2009,04,22,08,08,3.30
2009,04,22,08,09,3.30
2009,04,22,08,10,3.40
2009,04,22,08,11,3.50
2009,04,22,08,12,3.50
2009,04,22,08,13,3.60
2009,04,22,08,14,3.70
2009,04,22,08,15,3.80
2009,04,22,08,16,3.80
2009,04,22,08,17,3.90
2009,04,22,08,18,4.00
2009,04,22,08,19,4.00
2009,04,22,08,20,4.10
2009,04,22,08,21,4.20
2009,04,22,08,22,4.30
2009,04,22,08,23,4.40
2009,04,22,08,24,4.50
2009,04,22,08,25,4.60
2009,04,22,08,26,4.70
2009,04,22,08,27,4.80
2009,04,22,08,28,4.90
2009,04,22,08,29,5.00
2009,04,22,08,30,5.10
2009,04,22,08,31,5.20
2009,04,22,08,32,5.30
2009,04,22,08,33,5.50
2009,04,22,08,34,5.60
2009,04,22,08,35,5.70
2009,04,22,08,36,5.70
2009,04,22,08,37,5.90
2009,04,22,08,38,6.00
2009,04,22,08,39,6.10
2009,04,22,08,40,6.20
2009,04,22,08,41,6.30
2009,04,22,08,42,6.50
2009,04,22,08,43,6.60
2009,04,22,08,44,6.80
2009,04,22,08,45,6.90
2009,04,22,08,46,7.00
2009,04,22,08,47,7.10
2009,04,22,08,48,7.30
2009,04,22,08,49,7.30
2009,04,22,08,50,7.40
2009,04,22,08,51,7.50
2009,04,22,08,52,7.60
2009,04,22,08,53,7.70
2009,04,22,08,54,7.70
2009,04,22,08,55,7.80
2009,04,22,08,56,7.90
2009,04,22,08,57,7.90
2009,04,22,08,58,8.00
2009,04,22,08,59,8.10
2009,04,22,09,00,8.20
2009,04,22,09,01,8.20
2009,04,22,09,02,8.10
2009,04,22,09,03,8.10
2009,04,22,09,04,8.20
2009,04,22,09,05,8.20
2009,04,22,09,06,8.20
2009,04,22,09,07,8.20
2009,04,22,09,08,8.20
2009,04,22,09,09,8.30
2009,04,22,09,10,8.30
2009,04,22,09,11,8.30
2009,04,22,09,12,8.30
2009,04,22,09,13,8.30
2009,04,22,09,14,8.20
2009,04,22,09,15,8.30
2009,04,22,09,16,8.30
2009,04,22,09,17,8.30
2009,04,22,09,18,8.40
2009,04,22,09,19,8.40
2009,04,22,09,20,8.50
2009,04,22,09,21,8.50
2009,04,22,09,22,8.60
2009,04,22,09,23,8.70
2009,04,22,09,24,8.70
2009,04,22,09,25,8.80
2009,04,22,09,26,8.90
2009,04,22,09,27,9.00
2009,04,22,09,28,9.10
2009,04,22,09,29,9.20
2009,04,22,09,30,9.30
2009,04,22,09,31,9.30
2009,04,22,09,32,9.40
2009,04,22,09,33,9.40
2009,04,22,09,34,9.40
2009,04,22,09,35,9.40
2009,04,22,09,36,9.50
2009,04,22,09,37,9.50
2009,04,22,09,38,9.50
2009,04,22,09,39,9.50
2009,04,22,09,40,9.40
2009,04,22,09,41,9.40
2009,04,22,09,42,9.30
2009,04,22,09,43,9.20
2009,04,22,09,44,9.20
2009,04,22,09,45,9.30
2009,04,22,09,46,9.30
2009,04,22,09,47,9.30
2009,04,22,09,48,9.30
2009,04,22,09,49,9.30
2009,04,22,09,50,9.20
2009,04,22,09,51,9.20
2009,04,22,09,52,9.20
2009,04,22,09,53,9.20
2009,04,22,09,54,9.20
2009,04,22,09,55,9.20
2009,04,22,09,56,9.20
2009,04,22,09,57,9.20
2009,04,22,09,58,9.20
2009,04,22,09,59,9.20
2009,04,22,10,00,9.20
2009,04,22,10,01,9.20
2009,04,22,10,02,9.20
2009,04,22,10,03,9.20
2009,04,22,10,04,9.20
2009,04,22,10,05,9.20
2009,04,22,10,06,9.30
2009,04,22,10,07,9.30
2009,04,22,10,08,9.30
2009,04,22,10,09,9.30
2009,04,22,10,10,9.30
2009,04,22,10,11,9.30
2009,04,22,10,12,9.10
2009,04,22,10,13,9.00
2009,04,22,10,14,9.00
2009,04,22,10,15,9.00
2009,04,22,10,16,9.00
2009,04,22,10,17,9.00
2009,04,22,10,18,9.00
2009,04,22,10,19,9.00
2009,04,22,10,20,9.10
2009,04,22,10,21,9.10
2009,04,22,10,22,9.10
2009,04,22,10,23,9.10
2009,04,22,10,24,9.10
2009,04,22,10,25,9.20
2009,04,22,10,26,9.20
2009,04,22,10,27,9.20
2009,04,22,10,28,9.10
2009,04,22,10,29,9.00
2009,04,22,10,30,9.00
2009,04,22,10,31,8.90
2009,04,22,10,32,8.90
2009,04,22,10,33,8.80
2009,04,22,10,34,8.80
2009,04,22,10,35,8.80
2009,04,22,10,36,8.80
2009,04,22,10,37,8.90
2009,04,22,10,38,8.90
2009,04,22,10,39,9.00
2009,04,22,10,40,9.00
2009,04,22,10,41,9.10
2009,04,22,10,42,9.10
2009,04,22,10,43,9.10
2009,04,22,10,44,9.10
2009,04,22,10,45,9.10
2009,04,22,10,46,9.10
2009,04,22,10,47,9.10
2009,04,22,10,48,9.10
2009,04,22,10,49,9.00
2009,04,22,10,50,9.00
2009,04,22,10,51,9.00
2009,04,22,10,52,9.00
2009,04,22,10,53,9.00
2009,04,22,10,54,9.00
2009,04,22,10,55,8.90
2009,04,22,10,56,8.90
2009,04,22,10,57,8.80
2009,04,22,10,58,8.80
2009,04,22,10,59,8.80
2009,04,22,11,00,8.80
2009,04,22,11,01,8.80
2009,04,22,11,02,8.80
2009,04,22,11,03,8.70
2009,04,22,11,04,8.70
2009,04,22,11,05,8.70
2009,04,22,11,06,8.70
2009,04,22,11,07,8.70
2009,04,22,11,08,8.70
2009,04,22,11,09,8.70
2009,04,22,11,10,8.70
2009,04,22,11,11,8.70
2009,04,22,11,12,8.70
2009,04,22,11,13,8.70
2009,04,22,11,14,8.70
2009,04,22,11,15,8.70
2009,04,22,11,16,8.70
2009,04,22,11,17,8.60
2009,04,22,11,18,8.50
2009,04,22,11,19,8.40
2009,04,22,11,20,8.30
2009,04,22,11,21,8.20
2009,04,22,11,22,8.20
2009,04,22,11,23,8.20
2009,04,22,11,24,8.20
2009,04,22,11,25,8.10
2009,04,22,11,26,8.10
2009,04,22,11,27,8.10
2009,04,22,11,28,8.10
2009,04,22,11,29,8.20
2009,04,22,11,30,8.20
2009,04,22,11,31,8.20
2009,04,22,11,32,8.20
2009,04,22,11,33,8.20
2009,04,22,11,34,8.20
2009,04,22,11,35,8.20
2009,04,22,11,36,8.20
2009,04,22,11,37,8.20
2009,04,22,11,38,8.20
2009,04,22,11,39,8.20
2009,04,22,11,40,8.20
2009,04,22,11,41,8.30
2009,04,22,11,42,8.30
2009,04,22,11,43,8.30
2009,04,22,11,44,8.40
2009,04,22,11,45,8.50
2009,04,22,11,46,8.50
2009,04,22,11,47,8.50
2009,04,22,11,48,8.60
2009,04,22,11,49,8.60
2009,04,22,11,50,8.60
2009,04,22,11,51,8.70
2009,04,22,11,52,8.60
2009,04,22,11,53,8.60
2009,04,22,11,54,8.70
2009,04,22,11,55,8.70
2009,04,22,11,56,8.70
2009,04,22,11,57,8.80
2009,04,22,11,58,8.80
2009,04,22,11,59,8.80
2009,04,22,12,00,8.70
2009,04,22,12,01,8.70
2009,04,22,12,02,8.70
2009,04,22,12,03,8.60
2009,04,22,12,04,8.50
2009,04,22,12,05,8.50
2009,04,22,12,06,8.50
2009,04,22,12,07,8.50
2009,04,22,12,08,8.50
2009,04,22,12,09,8.50
2009,04,22,12,10,8.50
2009,04,22,12,11,8.50
2009,04,22,12,12,8.50
2009,04,22,12,13,8.60
2009,04,22,12,14,8.60
2009,04,22,12,15,8.60
2009,04,22,12,16,8.60
2009,04,22,12,17,8.60
2009,04,22,12,18,8.60
2009,04,22,12,19,8.50
2009,04,22,12,20,8.50
2009,04,22,12,21,8.50
2009,04,22,12,22,8.50
2009,04,22,12,23,8.50
2009,04,22,12,24,8.50
2009,04,22,12,25,8.50
2009,04,22,12,26,8.60
2009,04,22,12,27,8.60
2009,04,22,12,28,8.70
2009,04,22,12,29,8.70
2009,04,22,12,30,8.70
2009,04,22,12,31,8.70
2009,04,22,12,32,8.70
2009,04,22,12,33,8.70
2009,04,22,12,34,8.70
2009,04,22,12,35,8.70
2009,04,22,12,36,8.70
2009,04,22,12,37,8.60
2009,04,22,12,38,8.60
2009,04,22,12,39,8.50
2009,04,22,12,40,8.50
2009,04,22,12,41,8.50
2009,04,22,12,42,8.50
2009,04,22,12,43,8.60
2009,04,22,12,44,8.60
2009,04,22,12,45,8.60
2009,04,22,12,46,8.60
2009,04,22,12,47,8.50
2009,04,22,12,48,8.50
2009,04,22,12,49,8.40
2009,04,22,12,50,8.40
2009,04,22,12,51,8.40
2009,04,22,12,52,8.50
2009,04,22,12,53,8.50
2009,04,22,12,54,8.50
2009,04,22,12,55,8.50
2009,04,22,12,56,8.50
2009,04,22,12,57,8.50
2009,04,22,12,58,8.60
2009,04,22,12,59,8.60
2009,04,22,13,00,8.70
2009,04,22,13,01,8.70
2009,04,22,13,02,8.70
2009,04,22,13,03,8.70
2009,04,22,13,04,8.70
2009,04,22,13,05,8.80
2009,04,22,13,06,8.80
2009,04,22,13,07,8.80
2009,04,22,13,08,8.70
2009,04,22,13,09,8.70
2009,04,22,13,10,8.70
2009,04,22,13,11,8.70
2009,04,22,13,12,8.70
2009,04,22,13,13,8.80
2009,04,22,13,14,8.80
2009,04,22,13,15,8.90
2009,04,22,13,16,8.90
2009,04,22,13,17,9.00
2009,04,22,13,18,9.10
2009,04,22,13,19,9.10
2009,04,22,13,20,9.10
2009,04,22,13,21,9.10
2009,04,22,13,22,9.20
2009,04,22,13,23,9.40
2009,04,22,13,24,9.50
2009,04,22,13,25,9.60
2009,04,22,13,26,9.70
2009,04,22,13,27,9.80
2009,04,22,13,28,9.90
2009,04,22,13,29,9.90
2009,04,22,13,30,9.90
2009,04,22,13,31,9.90
2009,04,22,13,32,9.90
2009,04,22,13,33,9.90
2009,04,22,13,34,9.90
2009,04,22,13,35,9.90
2009,04,22,13,36,9.80
2009,04,22,13,37,9.80
2009,04,22,13,38,9.80
2009,04,22,13,39,9.80
2009,04,22,13,40,9.80
2009,04,22,13,41,9.80
2009,04,22,13,42,9.90
2009,04,22,13,43,9.90
2009,04,22,13,44,9.90
2009,04,22,13,45,9.90
2009,04,22,13,46,9.90
2009,04,22,13,47,9.90
2009,04,22,13,48,9.90
2009,04,22,13,49,10.10
2009,04,22,13,50,10.10
2009,04,22,13,51,10.20
2009,04,22,13,52,10.20
2009,04,22,13,53,10.20
2009,04,22,13,54,10.20
2009,04,22,13,55,10.10
2009,04,22,13,56,10.10
2009,04,22,13,57,10.00
2009,04,22,13,58,9.90
2009,04,22,13,59,9.90
2009,04,22,14,00,9.90
2009,04,22,14,01,9.80
2009,04,22,14,02,9.80
2009,04,22,14,03,9.80
2009,04,22,14,04,9.80
2009,04,22,14,05,9.90
2009,04,22,14,06,9.90
2009,04,22,14,07,10.00
2009,04,22,14,08,10.10
2009,04,22,14,09,10.10
2009,04,22,14,10,10.10
2009,04,22,14,11,10.10
2009,04,22,14,12,10.10
2009,04,22,14,13,10.10
2009,04,22,14,14,10.20
2009,04,22,14,15,10.20
2009,04,22,14,16,10.20
2009,04,22,14,17,10.30
2009,04,22,14,18,10.30
2009,04,22,14,19,10.30
2009,04,22,14,20,10.20
2009,04,22,14,21,10.20
2009,04,22,14,22,10.20
2009,04,22,14,23,10.20
2009,04,22,14,24,10.10
2009,04,22,14,25,10.10
2009,04,22,14,26,10.10
2009,04,22,14,27,10.10
2009,04,22,14,28,10.10
2009,04,22,14,29,10.10
2009,04,22,14,30,10.10
2009,04,22,14,31,10.10
2009,04,22,14,32,10.10
2009,04,22,14,33,10.10
2009,04,22,14,34,10.20
2009,04,22,14,35,10.20
2009,04,22,14,36,10.30
2009,04,22,14,37,10.40
2009,04,22,14,38,10.40
2009,04,22,14,39,10.40
2009,04,22,14,40,10.40
2009,04,22,14,41,10.40
2009,04,22,14,42,10.40
2009,04,22,14,43,10.40
2009,04,22,14,44,10.40
2009,04,22,14,45,10.40
2009,04,22,14,46,10.40
2009,04,22,14,47,10.30
2009,04,22,14,48,10.20
2009,04,22,14,49,10.10
2009,04,22,14,50,10.10
2009,04,22,14,51,10.10
2009,04,22,14,52,10.10
2009,04,22,14,53,10.10
2009,04,22,14,54,10.10
2009,04,22,14,55,10.10
2009,04,22,14,56,10.10
2009,04,22,14,57,10.10
2009,04,22,14,58,10.20
2009,04,22,14,59,10.20
2009,04,22,15,00,10.30
2009,04,22,15,01,10.40
2009,04,22,15,02,10.50
2009,04,22,15,03,10.60
2009,04,22,15,04,10.60
2009,04,22,15,05,10.70
2009,04,22,15,06,10.80
2009,04,22,15,07,10.90
2009,04,22,15,08,11.00
2009,04,22,15,09,11.20
2009,04,22,15,10,11.40
2009,04,22,15,11,11.50
2009,04,22,15,12,11.70
2009,04,22,15,13,11.80
2009,04,22,15,14,11.90
2009,04,22,15,15,11.90
2009,04,22,15,16,12.00
2009,04,22,15,17,12.10
2009,04,22,15,18,12.20
2009,04,22,15,19,12.30
2009,04,22,15,20,12.30
2009,04,22,15,21,12.30
2009,04,22,15,22,12.20
2009,04,22,15,23,12.10
2009,04,22,15,24,11.90
2009,04,22,15,25,11.80
2009,04,22,15,26,11.60
2009,04,22,15,27,11.50
2009,04,22,15,28,11.40
2009,04,22,15,29,11.20
2009,04,22,15,30,11.20
2009,04,22,15,31,11.10
2009,04,22,15,32,10.90
2009,04,22,15,33,10.90
2009,04,22,15,34,10.80
2009,04,22,15,35,10.70
2009,04,22,15,36,10.60
2009,04,22,15,37,10.60
2009,04,22,15,38,10.50
2009,04,22,15,39,10.40
2009,04,22,15,40,10.40
2009,04,22,15,41,10.30
2009,04,22,15,42,10.20
2009,04,22,15,43,10.10
2009,04,22,15,44,9.90
2009,04,22,15,45,9.80
2009,04,22,15,46,9.60
2009,04,22,15,47,9.40
2009,04,22,15,48,9.20
2009,04,22,15,49,9.00
2009,04,22,15,50,8.80
2009,04,22,15,51,8.60
2009,04,22,15,52,8.40
2009,04,22,15,53,8.20
2009,04,22,15,54,8.00
2009,04,22,15,55,7.90
2009,04,22,15,56,7.80
2009,04,22,15,57,7.60
2009,04,22,15,58,7.60
2009,04,22,15,59,7.50
2009,04,22,16,00,7.30
2009,04,22,16,01,7.30
2009,04,22,16,02,7.10
2009,04,22,16,03,7.10
2009,04,22,16,04,7.00
2009,04,22,16,05,7.00
2009,04,22,16,06,7.00
2009,04,22,16,07,6.90
2009,04,22,16,08,6.80
2009,04,22,16,09,6.80
2009,04,22,16,10,6.80
2009,04,22,16,11,6.70
2009,04,22,16,12,6.70
2009,04,22,16,13,6.60
2009,04,22,16,14,6.60
2009,04,22,16,15,6.60
2009,04,22,16,16,6.60
2009,04,22,16,17,6.60
2009,04,22,16,18,6.70
2009,04,22,16,19,6.70
2009,04,22,16,20,6.70
2009,04,22,16,21,6.70
2009,04,22,16,22,6.70
2009,04,22,16,23,6.70
2009,04,22,16,24,6.60
2009,04,22,16,25,6.60
2009,04,22,16,26,6.70
2009,04,22,16,27,6.80
2009,04,22,16,28,6.80
2009,04,22,16,29,6.90
2009,04,22,16,30,7.00
2009,04,22,16,31,7.00
2009,04,22,16,32,7.00
2009,04,22,16,33,7.10
2009,04,22,16,34,7.10
2009,04,22,16,35,7.20
2009,04,22,16,36,7.20
2009,04,22,16,37,7.20
2009,04,22,16,38,7.20
2009,04,22,16,39,7.30
2009,04,22,16,40,7.30
2009,04,22,16,41,7.30
2009,04,22,16,42,7.30
2009,04,22,16,43,7.30
2009,04,22,16,44,7.30
2009,04,22,16,45,7.30
2009,04,22,16,46,7.30
2009,04,22,16,47,7.30
2009,04,22,16,48,7.30
2009,04,22,16,49,7.30
2009,04,22,16,50,7.30
2009,04,22,16,51,7.30
2009,04,22,16,52,7.30
2009,04,22,16,53,7.30
2009,04,22,16,54,7.30
2009,04,22,16,55,7.30
2009,04,22,16,56,7.20
2009,04,22,16,57,7.20
2009,04,22,16,58,7.20
2009,04,22,16,59,7.20
2009,04,22,17,00,7.20
2009,04,22,17,01,7.20
2009,04,22,17,02,7.20
2009,04,22,17,03,7.20
2009,04,22,17,04,7.20
2009,04,22,17,05,7.30
2009,04,22,17,06,7.30
2009,04,22,17,07,7.30
2009,04,22,17,08,7.30
2009,04,22,17,09,7.30
2009,04,22,17,10,7.30
2009,04,22,17,11,7.30
2009,04,22,17,12,7.30
2009,04,22,17,13,7.30
2009,04,22,17,14,7.30
2009,04,22,17,15,7.30
2009,04,22,17,16,7.30
2009,04,22,17,17,7.30
2009,04,22,17,18,7.30
2009,04,22,17,19,7.30
2009,04,22,17,20,7.30
2009,04,22,17,21,7.30
2009,04,22,17,22,7.40
2009,04,22,17,23,7.40
2009,04,22,17,24,7.40
2009,04,22,17,25,7.40
2009,04,22,17,26,7.40
2009,04,22,17,27,7.40
2009,04,22,17,28,7.40
2009,04,22,17,29,7.40
2009,04,22,17,30,7.40
2009,04,22,17,31,7.40
2009,04,22,17,32,7.40
2009,04,22,17,33,7.40
2009,04,22,17,34,7.30
2009,04,22,17,35,7.30
2009,04,22,17,36,7.30
2009,04,22,17,37,7.30
2009,04,22,17,38,7.30
2009,04,22,17,39,7.20
2009,04,22,17,40,7.10
2009,04,22,17,41,7.10
2009,04,22,17,42,7.00
2009,04,22,17,43,7.00
2009,04,22,17,44,7.00
2009,04,22,17,45,6.90
2009,04,22,17,46,6.80
2009,04,22,17,47,6.80
2009,04,22,17,48,6.80
2009,04,22,17,49,6.80
2009,04,22,17,50,6.70
2009,04,22,17,51,6.70
2009,04,22,17,52,6.60
2009,04,22,17,53,6.60
2009,04,22,17,54,6.60
2009,04,22,17,55,6.60
2009,04,22,17,56,6.60
2009,04,22,17,57,6.60
2009,04,22,17,58,6.40
2009,04,22,17,59,6.40
2009,04,22,18,00,6.30
2009,04,22,18,01,6.30